Location: Joplin
(37.0842°N, 94.5131°W)
Time: 04:19:56
(UTC-06:00)

ISS - Pass Details

Date: 26 January 2019
Orbit: 403 x 411 km, 51.6° (Epoch: 16 February)

Event Time Altitude Azimuth Distance (km) Brightness Sun altitude
Rises 18:20:28 0° 263° (W) 2,323 2.1 -9.1°
Reaches altitude 10° 18:22:53 10° 280° (W) 1,467 0.1 -9.6°
Maximum altitude 18:25:26 21° 331° (NNW) 995 -1.7 -10.1°
Drops below altitude 10° 18:28:01 10° 22° (NNE) 1,476 -1.3 -10.6°
Enters shadow 18:28:32 - 28° (NNE) 1,643 -1.2 -10.7°
